[[{"header":{"parameterUnit":"m.s-1","parameterCategory":1,"la1":30.2991,"la2":30.254,"lo1":-89.0895,"lo2":-89.0444,"dy":0.0017,"dx":0.0017,"nx":28,"ny":28,"refTime":"2023-09-19T09:00:00:Z","depth":0,"parameterNumber":2,"parameterNumberName":"U-component_of_WINDS"},"data":[0,0,0,0,0,0,0,0,0,0,0,0,0,0,0,0,0,0,0,0,0,0,0,0,0,0,0,0,0,0,0,0,0,0,0,0,0,0,0,0,0,0,0,0,0,0,0,0,0,0,0,0,0,0,0,0,0,0,-3.5452,-3.5453,0,-3.5541,-3.5542,-3.5543,-3.5508,-3.5506,-3.5504,-3.5502,-3.5594,-3.5598,-3.5602,0,0,0,0,0,0,0,0,0,0,0,0,0,-3.5254,-3.5258,-3.5452,-3.5453,-3.5455,-3.5541,-3.5542,-3.5543,-3.5508,-3.5506,-3.5503,-3.5501,-3.5592,-3.5597,-3.5603,0,0,0,0,0,0,0,0,0,0,0,0,0,-3.5341,-3.5259,-3.5452,-3.5447,-3.5448,-3.554,-3.5542,-3.5543,-3.5509,-3.5505,-3.5502,-3.5499,-3.559,-3.5597,-3.5603,-3.5706,0,0,-3.5623,-3.5626,0,0,0,0,0,0,0,0,-3.5336,-3.5349,-3.5447,-3.5448,-3.5449,-3.551,-3.5506,-3.5598,-3.5509,-3.5486,-3.5502,-3.5498,-3.5568,-3.5577,-3.56,-3.5711,-3.5714,-3.5624,-3.5628,-3.5631,-3.5633,0,0,0,0,0,0,0,-3.533,-3.5345,-3.5487,-3.5448,-3.5449,-3.5441,-3.545,-3.5523,-3.5543,-3.5487,-3.5485,-3.5496,-3.5568,-3.5594,-3.5602,-3.5716,-3.5624,-3.563,-3.5634,-3.5636,-3.5914,-3.5917,0,0,0,0,0,0,-3.5324,-3.534,-3.5485,-3.549,-3.5384,-3.5447,-3.5457,-3.5493,-3.5543,-3.5547,-3.5499,-3.5494,-3.5584,-3.5594,-3.5605,-3.5727,-3.5631,-3.5637,-3.5641,-3.5911,-3.5915,-3.5918,0,0,0,0,0,0,-3.532,-3.5337,-3.5481,-3.5414,-3.5432,-3.5454,-3.5495,-3.5497,-3.5522,-3.5551,-3.5554,-3.5521,-3.5582,-3.5596,-3.5681,-3.5729,-3.564,-3.5646,-3.5906,-3.5912,-3.5917,-3.5972,0,0,0,0,0,0,-3.5314,-3.5336,-3.5375,-3.5415,-3.5436,-3.5555,-3.5498,-3.5501,-3.5533,-3.5528,-3.5573,-3.5577,-3.5581,-3.5671,-3.5687,-3.5737,-3.5651,-3.5902,-3.5909,-3.5915,-3.5966,-3.5978,-3.5989,0,0,0,0,0,-3.5307,-3.5388,-3.5377,-3.5395,-3.5485,-3.5558,-3.5569,-3.5571,-3.5538,-3.5577,-3.5595,-3.5576,-3.5723,-3.568,-3.5698,-3.575,-3.5899,-3.5907,-3.5914,-3.5961,-3.5976,-3.5989,0,0,0,0,0,0,-3.5352,-3.5393,-3.5381,-3.5477,-3.5514,-3.5552,-3.5601,-3.5588,-3.5636,-3.5629,-3.563,-3.5641,-3.5728,-3.5748,-3.5701,-3.5852,-3.5806,-3.5817,-3.5835,-3.5849,-3.5861,-3.5852,-3.5656,0,0,0,0,0,-3.5374,-3.5429,-3.5462,-3.5543,-3.5562,-3.5579,-3.5611,-3.5609,-3.5648,-3.5663,-3.5688,-3.5727,-3.5781,-3.5817,-3.5869,-3.597,-3.5978,-3.6015,-3.6027,-3.6036,-3.6045,-3.6098,-3.6114,-3.5944,-3.5944,-3.5944,0,0,-3.5417,-3.5446,-3.5481,-3.5553,-3.5581,-3.5638,-3.5592,-3.5655,-3.5697,-3.5673,-3.5753,-3.5774,-3.5817,-3.591,-3.5952,-3.593,-3.6094,-3.6046,-3.6053,-3.6057,-3.6108,-3.6124,-3.6138,-3.5949,-3.5948,-3.5947,0,0,-3.5526,-3.5555,-3.5624,-3.5654,-3.5697,-3.5708,-3.5725,-3.5765,-3.5776,-3.5858,-3.584,-3.5892,-3.5987,-3.6017,-3.6046,-3.6167,-3.615,-3.6185,-3.6244,-3.6296,-3.6309,-3.6321,-3.6362,-3.6377,-3.6194,-3.6194,-3.6195,0,-3.5575,-3.5659,-3.5662,-3.5725,-3.5757,-3.5738,-3.5808,-3.5837,-3.5896,-3.5918,-3.5893,-3.601,-3.6039,-3.6137,-3.6167,-3.6192,-3.621,-3.6177,-3.6307,-3.6319,-3.633,-3.6369,-3.6384,-3.6198,-3.6198,-3.6197,-3.6197,0,-3.5716,-3.5776,-3.5827,-3.5883,-3.5921,-3.5988,-3.6,-3.6038,-3.6034,-3.6048,-3.6131,-3.6164,-3.6222,-3.6246,-3.6244,-3.6345,-3.6329,-3.6306,-3.6258,-3.635,-3.6386,-3.6401,-3.6203,-3.6202,-3.6201,-3.62,0,0,-3.5853,-3.5909,-3.5928,-3.5952,-3.6,-3.6046,-3.6113,-3.6168,-3.62,-3.6242,-3.6297,-3.6378,-3.6356,-3.6389,-3.639,-3.6436,-3.6527,-3.6406,-3.6407,-3.6425,-3.6638,-3.6653,-3.667,-3.6518,-3.6521,-3.6523,-3.6634,0,-3.5962,-3.6077,-3.6081,-3.6186,-3.624,-3.6224,-3.6281,-3.6317,-3.6332,-3.6381,-3.6398,-3.6454,-3.6423,-3.6442,-3.6487,-3.6506,-3.6569,-3.6499,-3.6567,-3.657,-3.6553,-3.669,-3.6706,-3.6808,-3.6648,-3.6651,-3.6653,0,-3.6104,-3.6149,-3.6259,-3.6297,-3.632,-3.6372,-3.6423,-3.647,-3.6511,-3.6519,-3.6555,-3.6549,-3.6618,-3.6571,-3.6665,-3.6617,-3.6646,-3.666,-3.6664,-3.6667,-3.6614,-3.6694,-3.6841,-3.6855,-3.6676,-3.6674,-3.6672,0,-3.6188,-3.6277,-3.6354,-3.6376,-3.6424,-3.646,-3.6482,-3.6519,-3.6552,-3.6598,-3.6619,-3.6673,-3.6702,-3.6744,-3.6753,-3.6719,-3.6846,-3.6801,-3.6854,-3.6853,-3.6878,-3.6875,-3.7028,-3.6903,-3.6903,-3.6902,-3.6902,0,-3.6308,-3.6375,-3.6392,-3.6438,-3.6513,-3.6519,-3.6593,-3.6612,-3.6646,-3.6696,-3.6688,-3.6735,-3.6746,-3.6797,-3.6805,-3.688,-3.6894,-3.6902,-3.6902,-3.69,-3.6899,-3.6916,-3.6908,-3.6906,-3.6906,-3.6905,-3.6904,0,-3.6413,-3.6427,-3.6509,-3.6548,-3.6559,-3.6612,-3.6646,-3.6691,-3.6706,-3.677,-3.6785,-3.6808,-3.6867,-3.6882,-3.6952,-3.6958,-3.7046,-3.7042,-3.7031,-3.703,-3.708,-3.7074,-3.7247,-3.7269,-3.7132,-3.7133,-3.7134,0,-3.6486,-3.6537,-3.6581,-3.6614,-3.6637,-3.669,-3.6723,-3.6732,-3.6767,-3.6817,-3.6856,-3.6914,-3.6959,-3.7054,-3.7078,-3.7132,-3.7127,-3.7184,-3.7135,-3.7131,-3.7124,-3.7119,-3.7123,-3.7192,-3.7193,-3.7195,-3.7196,0,-3.6614,-3.6618,-3.6666,-3.6717,-3.6757,-3.6798,-3.6837,-3.6865,-3.6878,-3.6919,-3.6978,-3.7014,-3.7085,-3.7142,-3.7196,-3.722,-3.721,-3.7212,-3.7226,-3.7222,-3.7213,-3.7215,-3.7053,-3.7206,-3.7205,-3.7205,-3.7204,-3.7204,-3.6703,-3.6747,-3.6784,-3.6838,-3.6868,-3.6905,-3.6948,-3.6968,-3.7017,-3.7075,-3.7078,-3.7142,-3.7182,-3.7254,-3.728,-3.7331,-3.7314,-3.7335,-3.734,-3.7344,-3.7347,-3.7208,-3.7342,-3.7341,-3.7341,-3.7341,-3.7341,0,-3.6827,-3.6851,-3.69,-3.6954,-3.6997,-3.6984,-3.7027,-3.7063,-3.7119,-3.7157,-3.7202,-3.727,-3.7325,-3.7354,-3.7409,-3.7444,-3.7441,-3.7458,-3.7453,-3.7459,-3.7361,-3.7341,-3.7459,-3.7459,-3.7459,-3.7459,-3.7459,-3.7459,-3.6897,-3.6969,-3.6978,-3.7066,-3.7089,-3.7151,-3.7176,-3.721,-3.7239,-3.7315,-3.736,-3.7379,-3.7413,-3.747,-3.7521,-3.7528,-3.7547,-3.7566,-3.7571,-3.7478,-3.7466,-3.7454,-3.7435,-3.7571,-3.7571,-3.7664,-3.7664,-3.7665]},{"header":{"parameterUnit":"m.s-1","parameterCategory":1,"la1":30.2991,"la2":30.254,"lo1":-89.0895,"lo2":-89.0444,"dy":0.0017,"dx":0.0017,"nx":28,"ny":28,"refTime":"2023-09-19T09:00:00:Z","depth":0,"parameterNumber":3,"parameterNumberName":"V-component_of_WINDS"},"data":[0,0,0,0,0,0,0,0,0,0,0,0,0,0,0,0,0,0,0,0,0,0,0,0,0,0,0,0,0,0,0,0,0,0,0,0,0,0,0,0,0,0,0,0,0,0,0,0,0,0,0,0,0,0,0,0,0,0,1.3214,1.3213,0,1.309,1.3089,1.3087,1.2948,1.2946,1.2944,1.2942,1.2808,1.2807,1.2805,0,0,0,0,0,0,0,0,0,0,0,0,0,1.3326,1.3325,1.3214,1.3213,1.3211,1.309,1.3089,1.3087,1.2948,1.2946,1.2943,1.2941,1.2809,1.2807,1.2805,0,0,0,0,0,0,0,0,0,0,0,0,0,1.3247,1.3324,1.3215,1.3128,1.3119,1.3091,1.3088,1.3086,1.2949,1.2946,1.2943,1.294,1.281,1.2807,1.2805,1.285,0,0,1.2797,1.2796,0,0,0,0,0,0,0,0,1.3252,1.3243,1.3142,1.3134,1.3123,1.3031,1.3079,1.3007,1.295,1.3013,1.2942,1.2938,1.2885,1.2876,1.2859,1.2844,1.2838,1.2797,1.2795,1.2794,1.2794,0,0,0,0,0,0,0,1.3257,1.3248,1.3165,1.3141,1.3129,1.3093,1.3078,1.3065,1.2967,1.3007,1.2997,1.2984,1.2879,1.2862,1.2855,1.2836,1.2797,1.2795,1.2793,1.2792,1.2851,1.2853,0,0,0,0,0,0,1.3277,1.3253,1.3169,1.3161,1.3182,1.3094,1.3077,1.3064,1.2967,1.295,1.2987,1.2978,1.2868,1.2858,1.285,1.2895,1.2794,1.2792,1.2791,1.2848,1.2851,1.2855,0,0,0,0,0,0,1.328,1.3271,1.3174,1.3204,1.3189,1.3095,1.3081,1.3063,1.3046,1.2952,1.2933,1.2988,1.2865,1.2853,1.2851,1.2888,1.2791,1.2789,1.2844,1.2849,1.2853,1.2988,0,0,0,0,0,0,1.3284,1.3273,1.329,1.3206,1.3188,1.318,1.3083,1.3063,1.3043,1.303,1.2948,1.2931,1.2861,1.2856,1.2849,1.2883,1.2787,1.284,1.2846,1.2851,1.2979,1.2996,1.3011,0,0,0,0,0,1.3288,1.3332,1.3292,1.3282,1.3209,1.3182,1.3172,1.3093,1.3046,1.3062,1.3002,1.2934,1.2886,1.2857,1.2848,1.2882,1.2837,1.2844,1.2851,1.2972,1.2993,1.301,0,0,0,0,0,0,1.3421,1.3319,1.3274,1.3292,1.3247,1.3159,1.3176,1.3117,1.3083,1.3072,1.2974,1.2956,1.2966,1.2924,1.2893,1.292,1.2852,1.2857,1.2947,1.2966,1.2981,1.299,1.2785,0,0,0,0,0,1.3453,1.3442,1.3353,1.3378,1.3358,1.3272,1.3257,1.3201,1.3149,1.3129,1.3068,1.3019,1.2992,1.2977,1.2948,1.2973,1.2952,1.2992,1.3008,1.3021,1.3026,1.3035,1.3051,1.2877,1.2877,1.2877,0,0,1.3518,1.3461,1.3459,1.3403,1.3361,1.335,1.3256,1.3249,1.3238,1.3126,1.3121,1.3076,1.3014,1.3026,1.3028,1.2991,1.307,1.303,1.3042,1.3039,1.3044,1.306,1.3075,1.2882,1.2881,1.288,0,0,1.363,1.3587,1.3602,1.3563,1.3502,1.3445,1.3449,1.337,1.3335,1.3329,1.3245,1.323,1.3188,1.3147,1.3121,1.3219,1.3154,1.3212,1.3293,1.3302,1.3316,1.3328,1.336,1.3374,1.3218,1.3218,1.3219,0,1.3717,1.3699,1.3617,1.3615,1.3591,1.3492,1.3506,1.3471,1.3403,1.3388,1.3349,1.3293,1.3245,1.3245,1.3269,1.3252,1.3251,1.322,1.3321,1.3332,1.3341,1.3372,1.3384,1.3226,1.3225,1.3224,1.3223,0,1.3809,1.3797,1.3817,1.3756,1.3735,1.3741,1.3658,1.3646,1.3592,1.3538,1.3532,1.3471,1.3427,1.3423,1.3369,1.3416,1.3394,1.334,1.3268,1.3367,1.3393,1.3404,1.3236,1.3234,1.3231,1.323,0,0,1.3999,1.3894,1.3902,1.3873,1.3799,1.3787,1.3788,1.3747,1.3738,1.3695,1.3692,1.3659,1.3608,1.3578,1.3519,1.3528,1.3607,1.3471,1.3468,1.3496,1.3651,1.3691,1.3706,1.3564,1.3566,1.3568,1.3656,0,1.4096,1.4093,1.4019,1.4036,1.4023,1.3929,1.3929,1.3883,1.3834,1.3814,1.3757,1.3735,1.3671,1.3652,1.3657,1.3596,1.3636,1.3589,1.3557,1.3557,1.3573,1.372,1.3763,1.3848,1.3666,1.3667,1.3669,0,1.4208,1.4174,1.419,1.4115,1.4107,1.4109,1.4065,1.4049,1.3994,1.3956,1.3925,1.3858,1.3851,1.3786,1.3774,1.3744,1.3726,1.3695,1.3696,1.3688,1.3617,1.3714,1.3874,1.3886,1.3684,1.3683,1.3682,0,1.4343,1.43,1.4304,1.4282,1.4196,1.4199,1.4163,1.4105,1.4085,1.4047,1.4032,1.3993,1.3971,1.3941,1.3865,1.3825,1.3861,1.379,1.3827,1.3829,1.3836,1.3837,1.3994,1.383,1.383,1.383,1.3829,0,1.4457,1.447,1.4363,1.4365,1.4377,1.4292,1.4305,1.4259,1.4209,1.4199,1.4115,1.4107,1.4008,1.3988,1.3928,1.3926,1.3917,1.3885,1.3868,1.3891,1.3895,1.3876,1.3867,1.3833,1.3832,1.3832,1.3831,0,1.4608,1.4538,1.4535,1.4455,1.4435,1.4446,1.4376,1.4373,1.4319,1.4308,1.43,1.4214,1.4186,1.4108,1.406,1.4019,1.4033,1.4004,1.4052,1.4041,1.4082,1.4079,1.4231,1.4246,1.4076,1.4078,1.4079,0,1.4685,1.4693,1.4614,1.4602,1.457,1.4553,1.4532,1.4449,1.4431,1.437,1.4374,1.434,1.4309,1.4268,1.42,1.4162,1.4129,1.4186,1.4123,1.4145,1.4127,1.4127,1.4126,1.4198,1.4201,1.4203,1.4204,0,1.4828,1.4792,1.4768,1.4731,1.471,1.4677,1.4638,1.4633,1.4539,1.4523,1.4495,1.4471,1.4423,1.4389,1.4341,1.43,1.4236,1.4225,1.4231,1.4253,1.428,1.4264,1.4087,1.4221,1.4219,1.4218,1.4217,1.4217,1.4941,1.4944,1.4889,1.4864,1.4827,1.4793,1.4787,1.4733,1.4709,1.4664,1.4617,1.4593,1.4537,1.4466,1.443,1.4409,1.4375,1.4385,1.4387,1.439,1.4399,1.4286,1.44,1.44,1.4399,1.4399,1.4398,0,1.5078,1.5039,1.5017,1.4967,1.4947,1.4892,1.4846,1.4832,1.4814,1.4768,1.4739,1.4706,1.4674,1.4604,1.4564,1.456,1.453,1.4552,1.455,1.4542,1.4433,1.4431,1.4578,1.4578,1.4578,1.4578,1.4578,1.4578,1.5147,1.5147,1.5106,1.5087,1.5046,1.5025,1.5004,1.4971,1.4934,1.4902,1.4876,1.4831,1.4775,1.473,1.4697,1.4677,1.4665,1.4697,1.4668,1.4567,1.455,1.4533,1.453,1.4696,1.4696,1.4777,1.4778,1.4779]}]]